Regional Weather Roundup
Issued by NWS State College, PA

Home | Current Version | Previous Version | Text Only | Print | Product List | Glossary On
Versions: 1 2 3 4 5 6 7 8 9 10 11 12 13 14 15 16 17 18 19 20 21 22 23 24 25 26 27 28 29 30 31 32 33 34 35 36 37 38 39 40 41 42 43 44 45 46 47 48 49 50
000
ASUS41 KCTP 252210
RWRCTP

REGIONAL WEATHER ROUNDUP
NATIONAL WEATHER SERVICE STATE COLLEGE PA
500 PM EST SUN JAN 25 2015

Note: "fair" indicates few or no clouds below 12,000 feet with no
significant weather and/or obstructions to visibility.

* = STATION THAT DOES NOT REPORT PRECIPITATION /E.G. RAIN...SNOW...ETC/
    THUNDER OR FOG.

PAZ002>004-007>009-013>016-020>023-029>032-252300-
WESTERN PENNSYLVANIA

CITY           SKY/WX    TMP DP  RH WIND       PRES   REMARKS
ERIE           MOCLDY    19  11  70 NE13      29.92R WCI   6
MEADVILLE      CLOUDY    24  14  65 NE6       29.82R
FRANKLIN*      CLOUDY    27  18  69 CALM      29.81F
NEW CASTLE     LGT SNOW  28  27  93 NE9       29.82S FOG
BEAVER COUNTY  LGT SNOW  32  28  86 NE3       29.78R
BUTLER*        CLOUDY    30  27  86 NE9       29.81R
PITTSBURGH INT LGT SNOW  33  31  92 NE8       29.77R FOG
PITTSBURGH     LGT SNOW  33  30  88 CALM      29.76S VSB 3/4
INDIANA*       CLOUDY    32  30  93 NE5       29.82S
LATROBE        CLOUDY    30  30 100 CALM      29.79S FOG
WASHINGTON CO* CLOUDY    34  32  93 E3        29.77S
$$

PAZ004>006-010>012-017>019-024>028-033>037-041-042-045-046-049>053-252300-
CENTRAL PENNSYLVANIA

CITY           SKY/WX    TMP DP  RH WIND       PRES   REMARKS
BRADFORD       MOCLDY    25   6  44 CALM      29.78R
DUBOIS         CLOUDY    29  23  78 N3        29.77R
CLEARFIELD     CLOUDY    32  22  66 CALM      29.79R
JOHNSTOWN      LGT SNOW  31  30  96 CALM      29.72F FOG
ALTOONA        CLOUDY    35  32  88 CALM      29.77S FOG
STATE COLLEGE  CLOUDY    32  27  80 CALM      29.80R
WILLIAMSPORT   CLOUDY    36  12  37 N6        29.83R
SELINSGROVE    CLOUDY    37  25  61 NE5       29.83R
FT INDIANTOWN  CLOUDY    38  29  71 VRB1      29.82R
CAPITAL CITY   CLOUDY    40  33  76 CALM      29.82R
HARRISBURG     LGT RAIN  37  31  78 NW3       29.82R
YORK           CLOUDY    37  31  78 CALM      29.82R
$$

PAZ038>040-043-044-047-048-054-055-060>062-067>071-252300-
EASTERN PENNSYLVANIA

CITY           SKY/WX    TMP DP  RH WIND       PRES   REMARKS
SCRANTON       MOCLDY    29   8  41 N7        29.83R
MOUNT POCONO   CLOUDY    27   7  42 NW8       29.75S
ALLENTOWN      CLOUDY    38  23  55 NW5       29.82R
QUAKERTOWN*    NOT AVBL
READING        CLOUDY    39  29  67 CALM      29.82R
LANCASTER      CLOUDY    39  31  72 SW3       29.82R
COATESVILLE    CLOUDY    39  34  81 CALM      29.83R
POTTSTOWN      CLOUDY    38  30  73 N3        29.84R
BLUE BELL      MOCLDY    41  32  70 CALM      29.83R
DOYLESTOWN     CLOUDY    37  29  72 CALM      29.82R
WILLOW GROVE   NOT AVBL
NORTH PHILA    MOCLDY    42  29  59 W5        29.86R
PHILADELPHIA   CLOUDY    44  31  60 W9        29.85R
$$


USA.gov is the U.S. government's official web portal to all federal, state and local government web resources and services.